Time,TemperatureF,DewpointF,PressureIn,WindDirection,WindDirectionDegrees,WindSpeedMPH,WindSpeedGustMPH,Humidity,HourlyPrecipIn,Conditions,Clouds,dailyrainin,SoftwareType,DateUTC
2013-02-24 00:11:00,21.1,18.0,30.23,NE,45,4.0,11.0,86,0.00,,,0.00,weatherlink.com 1.10,2013-02-24 07:11:00,
2013-02-24 00:26:00,21.0,18.0,30.24,NNE,23,9.0,15.0,86,0.00,,,0.00,weatherlink.com 1.10,2013-02-24 07:26:00,
2013-02-24 00:41:00,21.0,18.0,30.24,North,349,6.0,12.0,86,0.00,,,0.00,weatherlink.com 1.10,2013-02-24 07:41:00,
2013-02-24 00:56:00,21.1,18.0,30.25,NNW,347,4.0,8.0,87,0.00,,,0.00,weatherlink.com 1.10,2013-02-24 07:56:00,
2013-02-24 01:11:00,21.0,18.0,30.25,NNW,333,4.0,11.0,86,0.00,,,0.00,weatherlink.com 1.10,2013-02-24 08:11:00,
2013-02-24 01:26:00,21.1,18.0,30.26,NNW,336,2.0,9.0,87,0.00,,,0.00,weatherlink.com 1.10,2013-02-24 08:26:00,
2013-02-24 01:41:00,21.1,18.0,30.27,WNW,301,5.0,10.0,86,0.00,,,0.00,weatherlink.com 1.10,2013-02-24 08:41:00,
2013-02-24 01:56:00,21.1,18.0,30.27,WNW,286,6.0,10.0,86,0.00,,,0.00,weatherlink.com 1.10,2013-02-24 08:56:00,
2013-02-24 02:11:00,21.0,18.0,30.27,WNW,290,5.0,7.0,87,0.00,,,0.00,weatherlink.com 1.10,2013-02-24 09:11:00,
2013-02-24 02:26:00,21.1,18.0,30.28,NW,324,6.0,9.0,87,0.00,,,0.00,weatherlink.com 1.10,2013-02-24 09:26:00,
2013-02-24 02:41:00,21.1,18.0,30.28,WNW,299,5.0,10.0,87,0.00,,,0.00,weatherlink.com 1.10,2013-02-24 09:41:00,
2013-02-24 02:56:00,21.1,18.0,30.28,NW,312,5.0,11.0,86,0.00,,,0.00,weatherlink.com 1.10,2013-02-24 09:56:00,
2013-02-24 03:11:00,21.1,18.0,30.28,WNW,285,5.0,8.0,87,0.00,,,0.00,weatherlink.com 1.10,2013-02-24 10:11:00,
2013-02-24 03:26:00,21.3,18.0,30.28,WNW,282,6.0,10.0,86,0.00,,,0.00,weatherlink.com 1.10,2013-02-24 10:26:00,
2013-02-24 03:41:00,21.1,17.0,30.29,West,268,11.0,13.0,85,0.00,,,0.00,weatherlink.com 1.10,2013-02-24 10:41:00,
2013-02-24 03:56:00,21.1,17.0,30.29,West,281,7.0,11.0,84,0.00,,,0.00,weatherlink.com 1.10,2013-02-24 10:56:00,
2013-02-24 04:11:00,21.4,17.0,30.30,WNW,291,7.0,10.0,83,0.00,,,0.00,weatherlink.com 1.10,2013-02-24 11:11:00,
2013-02-24 04:26:00,21.6,17.0,30.31,WNW,286,6.0,12.0,83,0.00,,,0.00,weatherlink.com 1.10,2013-02-24 11:26:00,
2013-02-24 04:41:00,21.6,17.0,30.31,WNW,289,7.0,9.0,82,0.00,,,0.00,weatherlink.com 1.10,2013-02-24 11:41:00,
2013-02-24 04:56:00,21.6,17.0,30.32,WNW,295,7.0,12.0,83,0.00,,,0.00,weatherlink.com 1.10,2013-02-24 11:56:00,
2013-02-24 05:11:00,21.4,17.0,30.33,West,280,8.0,11.0,82,0.00,,,0.00,weatherlink.com 1.10,2013-02-24 12:11:00,
2013-02-24 05:26:00,21.4,17.0,30.34,WNW,287,7.0,12.0,82,0.00,,,0.00,weatherlink.com 1.10,2013-02-24 12:26:00,
2013-02-24 05:41:00,21.6,16.0,30.35,West,277,6.0,12.0,80,0.00,,,0.00,weatherlink.com 1.10,2013-02-24 12:41:00,
2013-02-24 05:56:00,21.9,16.0,30.36,WNW,282,6.0,11.0,79,0.00,,,0.00,weatherlink.com 1.10,2013-02-24 12:56:00,
2013-02-24 06:12:00,22.1,16.0,30.36,West,262,3.0,9.0,77,0.00,,,0.00,weatherlink.com 1.10,2013-02-24 13:12:00,
2013-02-24 06:27:00,22.4,15.0,30.36,WNW,293,6.0,10.0,74,0.00,,,0.00,weatherlink.com 1.10,2013-02-24 13:27:00,
2013-02-24 06:42:00,22.5,14.0,30.37,NW,309,3.0,12.0,70,0.00,,,0.00,weatherlink.com 1.10,2013-02-24 13:42:00,
2013-02-24 06:57:00,22.4,13.0,30.37,West,278,5.0,6.0,68,0.00,,,0.00,weatherlink.com 1.10,2013-02-24 13:57:00,
2013-02-24 07:12:00,21.9,12.0,30.37,NNW,332,6.0,8.0,65,0.00,,,0.00,weatherlink.com 1.10,2013-02-24 14:12:00,
2013-02-24 07:27:00,20.6,11.0,30.38,NW,317,6.0,7.0,66,0.00,,,0.00,weatherlink.com 1.10,2013-02-24 14:27:00,
2013-02-24 07:42:00,20.2,11.0,30.39,NW,323,3.0,7.0,67,0.00,,,0.00,weatherlink.com 1.10,2013-02-24 14:42:00,
2013-02-24 07:57:00,20.6,10.0,30.39,NNW,339,4.0,9.0,65,0.00,,,0.00,weatherlink.com 1.10,2013-02-24 14:57:00,
2013-02-24 08:12:00,21.1,11.0,30.41,NW,326,3.0,8.0,64,0.00,,,0.00,weatherlink.com 1.10,2013-02-24 15:12:00,
2013-02-24 08:27:00,21.1,11.0,30.41,NNW,333,1.0,9.0,64,0.00,,,0.00,weatherlink.com 1.10,2013-02-24 15:27:00,
2013-02-24 08:42:00,20.3,11.0,30.42,NNW,330,4.0,4.0,67,0.00,,,0.00,weatherlink.com 1.10,2013-02-24 15:42:00,
2013-02-24 08:59:00,21.3,12.0,30.43,NNW,330,2.0,4.0,66,0.00,,,0.00,weatherlink.com 1.10,2013-02-24 15:59:00,
2013-02-24 09:12:00,23.8,12.0,30.43,NNE,21,2.0,5.0,62,0.00,,,0.00,weatherlink.com 1.10,2013-02-24 16:12:00,
2013-02-24 09:27:00,24.5,13.0,30.44,North,354,2.0,4.0,61,0.02,,,0.02,weatherlink.com 1.10,2013-02-24 16:27:00,
2013-02-24 09:42:00,24.7,13.0,30.44,North,4,2.0,3.0,61,0.03,,,0.03,weatherlink.com 1.10,2013-02-24 16:42:00,
2013-02-24 09:57:00,25.1,13.0,30.45,North,4,1.0,3.0,60,0.05,,,0.05,weatherlink.com 1.10,2013-02-24 16:57:00,
2013-02-24 10:12:00,26.4,14.0,30.45,North,4,0.0,2.0,60,0.05,,,0.06,weatherlink.com 1.10,2013-02-24 17:12:00,
2013-02-24 10:27:00,25.7,11.0,30.45,West,273,4.0,5.0,53,0.06,,,0.08,weatherlink.com 1.10,2013-02-24 17:27:00,
2013-02-24 10:42:00,25.7,13.0,30.45,WNW,299,1.0,4.0,60,0.05,,,0.09,weatherlink.com 1.10,2013-02-24 17:42:00,
2013-02-24 10:57:00,26.4,13.0,30.45,North,354,4.0,4.0,57,0.05,,,0.10,weatherlink.com 1.10,2013-02-24 17:57:00,
2013-02-24 11:12:00,26.9,12.0,30.45,North,354,1.0,2.0,53,0.05,,,0.11,weatherlink.com 1.10,2013-02-24 18:12:00,
2013-02-24 11:27:00,27.5,11.0,30.44,NNW,345,0.0,4.0,50,0.03,,,0.11,weatherlink.com 1.10,2013-02-24 18:27:00,
2013-02-24 11:42:00,27.8,13.0,30.44,North,349,1.0,4.0,54,0.03,,,0.12,weatherlink.com 1.10,2013-02-24 18:42:00,
2013-02-24 11:57:00,27.8,13.0,30.45,NNW,347,1.0,3.0,53,0.03,,,0.13,weatherlink.com 1.10,2013-02-24 18:57:00,
2013-02-24 12:12:00,27.8,13.0,30.44,NNE,31,1.0,5.0,53,0.02,,,0.13,weatherlink.com 1.10,2013-02-24 19:12:00,
2013-02-24 12:27:00,29.5,12.0,30.44,NNE,31,0.0,2.0,48,0.03,,,0.14,weatherlink.com 1.10,2013-02-24 19:27:00,
2013-02-24 12:42:00,29.3,12.0,30.43,WSW,258,2.0,4.0,49,0.02,,,0.14,weatherlink.com 1.10,2013-02-24 19:42:00,
2013-02-24 12:57:00,29.0,11.0,30.43,WSW,258,3.0,4.0,48,0.01,,,0.14,weatherlink.com 1.10,2013-02-24 19:57:00,
2013-02-24 13:12:00,27.9,10.0,30.43,WSW,258,3.0,4.0,47,0.02,,,0.15,weatherlink.com 1.10,2013-02-24 20:12:00,
2013-02-24 13:27:00,28.5,10.0,30.42,WSW,258,0.0,4.0,46,0.01,,,0.15,weatherlink.com 1.10,2013-02-24 20:27:00,
2013-02-24 13:42:00,29.7,12.0,30.42,WSW,258,2.0,3.0,47,0.01,,,0.15,weatherlink.com 1.10,2013-02-24 20:42:00,
2013-02-24 13:57:00,29.5,10.0,30.42,WSW,258,0.0,3.0,45,0.01,,,0.15,weatherlink.com 1.10,2013-02-24 20:57:00,
2013-02-24 14:12:00,28.5,11.0,30.42,SSE,153,3.0,7.0,48,0.00,,,0.15,weatherlink.com 1.10,2013-02-24 21:12:00,
2013-02-24 14:27:00,29.8,10.0,30.42,SSE,154,2.0,4.0,44,0.00,,,0.15,weatherlink.com 1.10,2013-02-24 21:27:00,
2013-02-24 14:42:00,30.7,10.0,30.43,SSE,154,3.0,3.0,42,0.00,,,0.15,weatherlink.com 1.10,2013-02-24 21:42:00,
2013-02-24 14:57:00,30.1,9.0,30.43,SSE,160,3.0,4.0,42,0.00,,,0.15,weatherlink.com 1.10,2013-02-24 21:57:00,
2013-02-24 15:12:00,30.3,10.0,30.43,SSE,160,3.0,4.0,43,0.00,,,0.15,weatherlink.com 1.10,2013-02-24 22:12:00,
2013-02-24 15:28:00,30.6,8.0,30.44,SSE,161,1.0,4.0,38,0.00,,,0.15,weatherlink.com 1.10,2013-02-24 22:28:00,
2013-02-24 15:43:00,30.4,10.0,30.44,SSE,147,3.0,5.0,42,0.00,,,0.15,weatherlink.com 1.10,2013-02-24 22:43:00,
2013-02-24 15:58:00,28.5,8.0,30.44,SSW,212,5.0,7.0,42,0.00,,,0.15,weatherlink.com 1.10,2013-02-24 22:58:00,
2013-02-24 16:13:00,29.0,10.0,30.44,SE,140,4.0,4.0,46,0.00,,,0.15,weatherlink.com 1.10,2013-02-24 23:13:00,
2013-02-24 16:28:00,28.1,9.0,30.45,South,169,3.0,5.0,45,0.00,,,0.15,weatherlink.com 1.10,2013-02-24 23:28:00,
2013-02-24 16:43:00,25.8,8.0,30.44,SSE,160,4.0,6.0,47,0.00,,,0.15,weatherlink.com 1.10,2013-02-24 23:43:00,
2013-02-24 16:58:00,25.8,9.0,30.44,South,180,3.0,5.0,49,0.00,,,0.15,weatherlink.com 1.10,2013-02-24 23:58:00,
2013-02-24 17:13:00,26.3,11.0,30.43,South,172,0.0,3.0,52,0.00,,,0.15,weatherlink.com 1.10,2013-02-25 00:13:00,
2013-02-24 17:28:00,23.5,9.0,30.44,SW,230,0.0,4.0,55,0.00,,,0.15,weatherlink.com 1.10,2013-02-25 00:28:00,
2013-02-24 17:43:00,21.0,9.0,30.45,SW,229,2.0,3.0,59,0.00,,,0.15,weatherlink.com 1.10,2013-02-25 00:43:00,
2013-02-24 17:58:00,19.4,8.0,30.45,SW,229,0.0,1.0,62,0.00,,,0.15,weatherlink.com 1.10,2013-02-25 00:58:00,
2013-02-24 18:13:00,18.3,8.0,30.45,SW,229,0.0,3.0,63,0.00,,,0.15,weatherlink.com 1.10,2013-02-25 01:13:00,
2013-02-24 18:28:00,17.2,7.0,30.45,SW,230,0.0,2.0,63,0.00,,,0.15,weatherlink.com 1.10,2013-02-25 01:28:00,
2013-02-24 18:43:00,15.6,6.0,30.46,SW,230,2.0,3.0,65,0.00,,,0.15,weatherlink.com 1.10,2013-02-25 01:43:00,
2013-02-24 18:58:00,14.1,5.0,30.46,WSW,237,2.0,4.0,66,0.00,,,0.15,weatherlink.com 1.10,2013-02-25 01:58:00,
2013-02-24 19:13:00,13.3,4.0,30.47,WSW,239,3.0,4.0,66,0.00,,,0.15,weatherlink.com 1.10,2013-02-25 02:13:00,
2013-02-24 19:28:00,13.1,4.0,30.48,WSW,247,4.0,5.0,67,0.00,,,0.15,weatherlink.com 1.10,2013-02-25 02:28:00,
2013-02-24 19:43:00,13.6,6.0,30.47,SSW,210,4.0,6.0,70,0.00,,,0.15,weatherlink.com 1.10,2013-02-25 02:43:00,
2013-02-24 19:58:00,14.9,5.0,30.48,SW,224,6.0,10.0,66,0.00,,,0.15,weatherlink.com 1.10,2013-02-25 02:58:00,
2013-02-24 20:13:00,15.9,6.0,30.48,SW,218,5.0,9.0,66,0.00,,,0.15,weatherlink.com 1.10,2013-02-25 03:13:00,
2013-02-24 20:28:00,16.5,6.0,30.48,WSW,247,5.0,11.0,63,0.00,,,0.15,weatherlink.com 1.10,2013-02-25 03:28:00,
2013-02-24 20:43:00,14.1,4.0,30.48,WSW,258,3.0,5.0,63,0.00,,,0.15,weatherlink.com 1.10,2013-02-25 03:43:00,
2013-02-24 20:58:00,13.6,3.0,30.48,West,261,4.0,5.0,64,0.00,,,0.15,weatherlink.com 1.10,2013-02-25 03:58:00,
2013-02-24 21:13:00,15.4,3.0,30.47,SW,228,0.0,5.0,59,0.00,,,0.15,weatherlink.com 1.10,2013-02-25 04:13:00,
2013-02-24 21:28:00,15.2,4.0,30.47,SW,228,2.0,5.0,60,0.00,,,0.15,weatherlink.com 1.10,2013-02-25 04:28:00,
2013-02-24 21:43:00,15.1,4.0,30.47,SSW,212,2.0,5.0,61,0.00,,,0.15,weatherlink.com 1.10,2013-02-25 04:43:00,
2013-02-24 21:58:00,14.8,3.0,30.48,West,279,1.0,3.0,59,0.00,,,0.15,weatherlink.com 1.10,2013-02-25 04:58:00,
2013-02-24 22:13:00,15.2,3.0,30.48,West,278,2.0,4.0,58,0.00,,,0.15,weatherlink.com 1.10,2013-02-25 05:13:00,
2013-02-24 22:28:00,14.1,2.0,30.47,West,278,3.0,3.0,59,0.00,,,0.15,weatherlink.com 1.10,2013-02-25 05:28:00,
2013-02-24 22:43:00,13.3,1.0,30.47,NW,305,2.0,4.0,59,0.00,,,0.15,weatherlink.com 1.10,2013-02-25 05:43:00,
2013-02-24 22:58:00,13.8,2.0,30.47,NW,305,1.0,3.0,60,0.00,,,0.15,weatherlink.com 1.10,2013-02-25 05:58:00,
2013-02-24 23:14:00,15.1,2.0,30.47,NW,305,0.0,2.0,56,0.00,,,0.15,weatherlink.com 1.10,2013-02-25 06:14:00,
2013-02-24 23:28:00,16.5,2.0,30.47,NW,305,0.0,4.0,54,0.00,,,0.15,weatherlink.com 1.10,2013-02-25 06:28:00,
2013-02-24 23:43:00,16.2,1.0,30.47,NW,317,1.0,3.0,52,0.00,,,0.15,weatherlink.com 1.10,2013-02-25 06:43:00,
2013-02-24 23:58:00,16.2,2.0,30.46,NW,317,0.0,3.0,53,0.00,,,0.15,weatherlink.com 1.10,2013-02-25 06:58:00,